• In Hungary
  • List of Countries
  • For 7 days
  • Water Temperature
  • Satellite Maps
  • Weather Map
  • News
  • Weather Widgets
  • user-avatar
    Login

    Hourly Weather Kranevo

    Today, 25 May, Friday

    Time Temperature Precipitation Wind Pressure Humidity
    00:00 +18°C° 0.2 mm 3 mps 755 mmHg 75%
    01:00 +17°C° 0.2 mm 3 mps 755 mmHg 78%
    02:00 +17°C° 0.2 mm 3 mps 755 mmHg 81%
    03:00 +17°C° 0.3 mm 3 mps 755 mmHg 83%
    04:00 +17°C° 0.3 mm 3 mps 755 mmHg 84%
    05:00 +17°C° 0.3 mm 4 mps 755 mmHg 85%
    06:00 +18°C° 0.4 mm 4 mps 755 mmHg 81%
    07:00 +20°C° 0.4 mm 4 mps 755 mmHg 77%
    08:00 +22°C° 0.4 mm 5 mps 755 mmHg 72%
    09:00 +23°C° 0.5 mm 5 mps 755 mmHg 69%
    10:00 +25°C° 0.5 mm 5 mps 755 mmHg 67%
    11:00 +26°C° 0.5 mm 6 mps 755 mmHg 64%
    12:00 +26°C° 0.6 mm 6 mps 755 mmHg 64%
    13:00 +26°C° 0.6 mm 6 mps 755 mmHg 65%
    14:00 +26°C° 0.6 mm 6 mps 755 mmHg 65%
    15:00 +26°C° 0.2 mm 6 mps 755 mmHg 67%
    16:00 +25°C° 0.2 mm 5 mps 755 mmHg 68%
    17:00 +25°C° 0.2 mm 5 mps 755 mmHg 69%
    18:00 +22°C° 0 mm 5 mps 755 mmHg 73%
    19:00 +21°C° 0 mm 4 mps 756 mmHg 77%
    20:00 +19°C° 0 mm 3 mps 756 mmHg 81%
    21:00 +19°C° 0 mm 3 mps 756 mmHg 77%
    22:00 +18°C° 0 mm 3 mps 756 mmHg 74%
    23:00 +18°C° 0 mm 3 mps 756 mmHg 70%

    Tomorrow, 26 May, Saturday

    Time Temperature Precipitation Wind Pressure Humidity
    00:00 +18°C° 0 mm 4 mps 756 mmHg 69%
    01:00 +18°C° 0 mm 4 mps 756 mmHg 68%
    02:00 +18°C° 0 mm 4 mps 756 mmHg 68%
    03:00 +17°C° 0 mm 5 mps 756 mmHg 72%
    04:00 +16°C° 0 mm 5 mps 756 mmHg 76%
    05:00 +16°C° 0 mm 5 mps 756 mmHg 81%
    06:00 +19°C° 0 mm 6 mps 756 mmHg 80%
    07:00 +20°C° 0 mm 6 mps 757 mmHg 80%
    08:00 +22°C° 0 mm 7 mps 757 mmHg 80%
    09:00 +22°C° 0.5 mm 7 mps 757 mmHg 80%
    10:00 +22°C° 0.5 mm 7 mps 758 mmHg 79%
    11:00 +22°C° 0.5 mm 8 mps 758 mmHg 79%
    12:00 +23°C° 0.4 mm 8 mps 758 mmHg 77%
    13:00 +23°C° 0.4 mm 8 mps 758 mmHg 75%
    14:00 +23°C° 0.4 mm 8 mps 758 mmHg 73%
    15:00 +23°C° 0.1 mm 8 mps 758 mmHg 74%
    16:00 +22°C° 0.1 mm 8 mps 758 mmHg 75%
    17:00 +22°C° 0.1 mm 7 mps 758 mmHg 76%
    18:00 +21°C° 0 mm 7 mps 758 mmHg 80%
    19:00 +20°C° 0 mm 6 mps 758 mmHg 84%
    20:00 +19°C° 0 mm 6 mps 759 mmHg 88%
    21:00 +17°C° 0 mm 6 mps 759 mmHg 90%
    22:00 +17°C° 0 mm 5 mps 759 mmHg 92%
    23:00 +16°C° 0 mm 5 mps 759 mmHg 94%

    Day after tomorrow, 27 May, Sunday

    Time Temperature Precipitation Wind Pressure Humidity
    00:00 +16°C° 0 mm 5 mps 759 mmHg 94%
    01:00 +16°C° 0 mm 5 mps 759 mmHg 94%
    02:00 +16°C° 0 mm 5 mps 759 mmHg 93%
    03:00 +16°C° 0.1 mm 6 mps 759 mmHg 93%
    04:00 +16°C° 0.1 mm 6 mps 759 mmHg 93%
    05:00 +16°C° 0.1 mm 6 mps 759 mmHg 93%
    06:00 +17°C° 0 mm 6 mps 759 mmHg 90%
    07:00 +17°C° 0 mm 6 mps 759 mmHg 87%
    08:00 +18°C° 0 mm 7 mps 760 mmHg 85%
    09:00 +18°C° 0.1 mm 7 mps 760 mmHg 83%
    10:00 +20°C° 0.1 mm 7 mps 760 mmHg 81%
    11:00 +20°C° 0.1 mm 7 mps 760 mmHg 79%
    12:00 +21°C° 0 mm 7 mps 760 mmHg 76%
    13:00 +22°C° 0 mm 7 mps 760 mmHg 73%
    14:00 +22°C° 0 mm 7 mps 759 mmHg 70%
    15:00 +22°C° 0 mm 7 mps 759 mmHg 70%
    16:00 +22°C° 0 mm 6 mps 759 mmHg 70%
    17:00 +22°C° 0 mm 6 mps 759 mmHg 69%
    18:00 +20°C° 0 mm 6 mps 759 mmHg 74%
    19:00 +19°C° 0 mm 5 mps 759 mmHg 79%
    20:00 +16°C° 0 mm 5 mps 759 mmHg 84%
    21:00 +15°C° 0 mm 4 mps 759 mmHg 84%
    22:00 +15°C° 0 mm 4 mps 759 mmHg 85%
    23:00 +14°C° 0 mm 4 mps 760 mmHg 85%

    28 May, Monday

    Time Temperature Precipitation Wind Pressure Humidity
    00:00 +14°C° 0 mm 4 mps 759 mmHg 85%
    01:00 +14°C° 0 mm 5 mps 759 mmHg 84%
    02:00 +14°C° 0 mm 5 mps 759 mmHg 84%
    03:00 +14°C° 0 mm 5 mps 759 mmHg 84%
    04:00 +14°C° 0 mm 5 mps 759 mmHg 84%
    05:00 +14°C° 0 mm 6 mps 759 mmHg 85%
    06:00 +15°C° 0 mm 6 mps 759 mmHg 81%
    07:00 +17°C° 0 mm 7 mps 760 mmHg 76%
    08:00 +20°C° 0 mm 7 mps 760 mmHg 72%
    09:00 +21°C° 0 mm 7 mps 760 mmHg 69%
    10:00 +22°C° 0 mm 7 mps 760 mmHg 67%
    11:00 +23°C° 0 mm 7 mps 760 mmHg 64%
    12:00 +23°C° 0 mm 7 mps 760 mmHg 63%
    13:00 +23°C° 0 mm 7 mps 760 mmHg 61%
    14:00 +24°C° 0 mm 7 mps 760 mmHg 59%
    15:00 +23°C° 0 mm 7 mps 760 mmHg 60%
    16:00 +23°C° 0 mm 7 mps 760 mmHg 61%
    17:00 +22°C° 0 mm 7 mps 759 mmHg 62%
    18:00 +21°C° 0 mm 6 mps 759 mmHg 68%
    19:00 +19°C° 0 mm 5 mps 759 mmHg 74%
    20:00 +17°C° 0 mm 4 mps 760 mmHg 81%
    21:00 +17°C° 0 mm 4 mps 760 mmHg 80%
    22:00 +15°C° 0 mm 4 mps 760 mmHg 80%
    23:00 +15°C° 0 mm 4 mps 760 mmHg 80%

    29 May, Tuesday

    Time Temperature Precipitation Wind Pressure Humidity
    00:00 +15°C° 0 mm 5 mps 760 mmHg 78%
    01:00 +15°C° 0 mm 5 mps 760 mmHg 75%
    02:00 +15°C° 0 mm 5 mps 759 mmHg 73%
    03:00 +14°C° 0 mm 5 mps 759 mmHg 75%
    04:00 +14°C° 0 mm 5 mps 759 mmHg 76%
    05:00 +14°C° 0 mm 5 mps 759 mmHg 77%
    06:00 +16°C° 0 mm 6 mps 759 mmHg 74%
    07:00 +18°C° 0 mm 7 mps 759 mmHg 71%
    08:00 +21°C° 0 mm 7 mps 759 mmHg 67%
    09:00 +22°C° 0 mm 8 mps 759 mmHg 64%
    10:00 +23°C° 0 mm 8 mps 759 mmHg 61%
    11:00 +24°C° 0 mm 8 mps 759 mmHg 58%
    12:00 +24°C° 0 mm 8 mps 759 mmHg 58%
    13:00 +24°C° 0 mm 8 mps 759 mmHg 58%
    14:00 +24°C° 0 mm 8 mps 759 mmHg 58%
    15:00 +23°C° 0 mm 8 mps 759 mmHg 60%
    16:00 +23°C° 0 mm 8 mps 758 mmHg 61%
    17:00 +22°C° 0 mm 7 mps 758 mmHg 63%
    18:00 +21°C° 0 mm 7 mps 758 mmHg 67%
    19:00 +20°C° 0 mm 6 mps 758 mmHg 72%
    20:00 +19°C° 0 mm 6 mps 758 mmHg 76%
    21:00 +17°C° 0 mm 5 mps 758 mmHg 79%
    22:00 +17°C° 0 mm 5 mps 758 mmHg 82%
    23:00 +17°C° 0 mm 5 mps 758 mmHg 85%

    30 May, Wednesday

    Time Temperature Precipitation Wind Pressure Humidity
    00:00 +16°C° 0 mm 5 mps 757 mmHg 87%
    01:00 +16°C° 0 mm 5 mps 757 mmHg 89%
    02:00 +16°C° 0 mm 5 mps 757 mmHg 91%
    03:00 +16°C° 0 mm 5 mps 757 mmHg 91%
    04:00 +16°C° 0 mm 5 mps 757 mmHg 92%
    05:00 +16°C° 0 mm 6 mps 757 mmHg 92%
    06:00 +17°C° 0.1 mm 6 mps 757 mmHg 86%
    07:00 +18°C° 0.1 mm 7 mps 757 mmHg 80%
    08:00 +20°C° 0.1 mm 7 mps 757 mmHg 75%
    09:00 +21°C° 0 mm 7 mps 757 mmHg 71%
    10:00 +22°C° 0 mm 7 mps 757 mmHg 66%
    11:00 +23°C° 0 mm 7 mps 757 mmHg 62%
    12:00 +23°C° 0 mm 7 mps 757 mmHg 60%
    13:00 +23°C° 0 mm 7 mps 757 mmHg 58%
    14:00 +24°C° 0 mm 7 mps 757 mmHg 56%
    15:00 +23°C° 0 mm 7 mps 756 mmHg 57%
    16:00 +23°C° 0 mm 7 mps 756 mmHg 58%
    17:00 +22°C° 0 mm 7 mps 756 mmHg 59%
    18:00 +21°C° 0 mm 6 mps 756 mmHg 64%
    19:00 +19°C° 0 mm 5 mps 756 mmHg 70%
    20:00 +16°C° 0 mm 5 mps 756 mmHg 75%
    21:00 +16°C° 0 mm 5 mps 756 mmHg 73%
    22:00 +15°C° 0 mm 5 mps 756 mmHg 71%
    23:00 +15°C° 0 mm 5 mps 756 mmHg 69%
    Show more